Regional Weather Roundup
Issued by NWS Grand Forks, ND

Home | Current Version | Previous Version | Text Only | Print | Product List | Glossary Off
Versions: 1 2 3 4 5 6 7 8 9 10 11 12 13 14 15 16 17 18 19 20 21 22 23 24 25 26 27 28 29 30 31 32 33 34 35 36 37 38 39 40 41 42 43 44 45 46 47 48 49 50

000
ASUS43 KFGF 281010
RWRFGF
PRAIRIE TO PINES  WEATHER ROUNDUP
NATIONAL WEATHER SERVICE EASTERN NORTH DAKOTA/GRAND FORKS ND
500 AM CDT TUE APR 28 2015

 **SATELLITE DATA USED TO AUGMENT SKY COVER AT AUTOMATED STATIONS**
 *****  WEATHER ACROSS EASTERN NORTH DAKOTA  *****

CITY           SKY/WX    TMP DP  RH WIND       PRES   REMARKS
GRAND FORKS    FOG       43  43 100 N7        30.28R VSB 1/2
GRAND FRKS AFB CLOUDY    43  41  93 N2        30.28R FOG
GRAND FRKS NWS   N/A     41 N/A N/A N3          N/A
DEVILS LAKE      N/A     30  27  86 CALM      30.27S VSB<1/4
FARGO          MOCLDY    45  43  93 N9        30.26R
WAHPETON ARPT  CLOUDY    45  43  93 NW12      30.25R
$$

 ***** WEATHER ACROSS CENTRAL AND WESTERN NORTH DAKOTA  *****

CITY           SKY/WX    TMP DP  RH WIND       PRES   REMARKS
BISMARCK       CLEAR     33  32  96 SW3       30.32S FOG
MINOT          CLEAR     37  34  89 SW8       30.27S
JAMESTOWN      CLEAR     35  33  92 NW6       30.27S
MINOT AFB      CLEAR     35  35 100 W10       30.26S
GARRISON         N/A     32  29  88 CALM      30.29R
WILLISTON      CLEAR     37  34  89 S3        30.30R
DICKINSON      CLEAR     31  29  92 W7        30.30R WCI  24
HETTINGER      CLEAR     27  25  92 NW7       30.33R WCI  19
$$

 *****  OTHER AIRPORT OBSERVATIONS IN OUR AREA  *****

CITY           SKY/WX    TMP DP  RH WIND       PRES   REMARKS
WALHALLA       PTSUNNY   32  32 100 W6        30.27S
GRAFTON AIRPOR FOG       37  37 100 CALM      30.29S VSB<1/4
VALLEY CITY AR FOG       41  41 100 N6        30.28R VSB 1/4
CANDO          FOG       28  28 100 W5        30.28S VSB<1/4 WCI  23
CAVALIER APRT  FOG       32  32 100 SW3       30.26F VSB<1/4
GWINNER        CLOUDY    46  46 100 NW7       30.28S
ROLLA          NOT AVBL
 ***** THE ABOVE OBSERVATIONS ARE NON NWS ARE NOT QUALITY
       CONTROLLED AND MAY MIS-REPORT RAIN FOR SNOW...
$$

  *****  WEATHER ACROSS NORTHERN MINNESOTA  *****

CITY           SKY/WX    TMP DP  RH WIND       PRES   REMARKS
FLAG ISLAND    CLOUDY    43  39  87 N8        30.23F
WARROAD        CLOUDY    45  39  81 NW6       30.25S
ROSEAU         CLOUDY    45  39  81 N7        30.25S
HALLOCK        FOG       37  36  93 CALM      30.27S VSB<1/4
THF RVR FALLS  CLOUDY    43  39  87 N10       30.27R
BAUDETTE       CLOUDY    43  41  93 NW12      30.23R
WASKISH        DRIZZLE   45  43  93 CALM      30.23R
CROOKSTON      MIX PCPN  37  37 100 N8        30.28R VSB 1/4
$$
  *****  WEATHER ACROSS CENTRAL AND WEST MINNESOTA  *****

CITY           SKY/WX    TMP DP  RH WIND       PRES   REMARKS
FOSSTON        DRIZZLE   43  43 100 N10       30.24F
BEMIDJI        DRIZZLE   45  43  95 N7        30.22R
PARK RAPIDS    LGT RAIN  50  44  80 N9        30.20R
ELBOW LAKE     CLOUDY    50  43  77 N8        30.20S
WADENA         DRIZZLE   50  43  76 NW7       30.20R
DETROIT LAKES  DRIZZLE   45  45 100 NE6       30.22F
MOORHEAD       CLOUDY    45  43  93 NW10      30.26R
FERGUS FALLS   CLOUDY    48  43  81 N5        30.23R
MORRIS MN      CLOUDY    50  41  71 NW13      30.19S
STAPLES        CLOUDY    50  43  76 NW5       30.19R
$$
  *****  WEATHER ELSEWHERE ACROSS MINNESOTA  *****

CITY           SKY/WX    TMP DP  RH WIND       PRES   REMARKS
DULUTH         CLEAR     38  26  62 CALM      30.14S
INTRNTL FALLS  LGT RAIN  46  44  93 NW8       30.19R
ELY            PTCLDY    30  28  93 CALM      30.15S
CLOQUET        CLEAR     32  27  80 CALM      30.14S
WHEATON        CLOUDY    45  41  87 NW12      30.25R
BRAINERD       MOCLDY    51  43  74 N10       30.16R
HIBBING        CLOUDY    39  30  70 CALM      30.15R
ALEXANDRIA     CLOUDY    51  42  71 NW12      30.20R
SAINT CLOUD    CLEAR     39  30  70 CALM      30.14S
MINNEAPOLIS    MOCLDY    46  35  65 S3        30.15S
$$

  *****  WEATHER ACROSS SOUTH DAKOTA  *****

CITY           SKY/WX    TMP DP  RH WIND       PRES   REMARKS
SIOUX FALLS    FAIR      36  31  82 N3        30.20S
BROOKINGS      CLOUDY    43  39  87 CALM      30.22F
WATERTOWN      CLOUDY    48  42  80 NW9       30.23R
HURON          CLOUDY    48  43  82 N15       30.26R
SISSETON         N/A     47  46  97 N14       30.24R
ABERDEEN       LGT RAIN  47  43  86 N10       30.28S
MITCHELL       MOCLDY    48  43  82 NW13      30.26R
PIERRE         CLOUDY    43  41  93 NW8       30.31F
MOBRIDGE       PTCLDY    39  37  92 N6        30.29S
RAPID CITY     CLOUDY    35  33  92 NW3       30.34S
$$

  *****  SOME WEATHER IN NEARBY STATES *****

CITY           SKY/WX    TMP DP  RH WIND       PRES   REMARKS
GLASGOW MT     CLEAR     38  33  82 SE9       30.26S
GREAT FALLS MT CLEAR     43  31  62 S13       30.18F
CHEYENNE WY    CLOUDY    38  36  92 SE3       30.34S
SCOTTSBLUFF NE CLOUDY    43  40  89 E3        30.34S
OMAHA NE       PTCLDY    40  36  86 N6        30.18R
DES MOINES IA  CLEAR     47  37  68 CALM      30.16S
DAVENPORT IA   CLEAR     40  34  79 S7        30.14S
CHICAGO IL     CLEAR     37  32  82 W3        30.14R
EAU CLAIRE WI  CLEAR     35  30  82 CALM      30.16R
LA CROSSE WI   CLEAR     42  34  73 S3        30.15R
$$

  *****  SOME NATIONAL WEATHER *****

CITY           SKY/WX    TMP DP  RH WIND       PRES   REMARKS
LA GUARDIA NY  PTCLDY    51  37  58 N14       29.75R
RALEIGH NC     FAIR      42  35  76 NE5       29.96R
ATLANTA GA     CLOUDY    53  42  66 E10       29.89R
NEW ORLEANS LA CLOUDY    65  61  87 NE13      29.77R
OKLAHOMA CITY  CLOUDY    50  45  83 N8        30.08R
ALBUQUERQUE NM CLOUDY    45  40  82 SE7       30.27R
SALT LAKE CITY CLEAR     46  38  73 SE6       30.23S
LOS ANGELES CA CLEAR     61  44  53 NE3       29.95F
BOISE ID       CLEAR     52  30  43 SE12      30.17F
SEATTLE WA     MOCLDY    59  52  77 S8        29.98R
$$

*** WEATHER ACROSS MANITOBA...SASKATCHEWAN AND ONTARIO ***
                ***ONTARIO***

CITY           SKY/WX    TMP DP  RH WIND       PRES   REMARKS
GERALDTON      MOCLDY    27  25  93 CALM      30.11S
THUNDER BAY    MOCLDY    28  27  93 W5        30.14S WCI  23
SIOUX LOOKOUT  MOCLDY    43  39  87 NW5       30.18R
TORONTO        PTCLDY    41  34  75 N9        30.01S
BIG TROUT LK   CLOUDY    36  36 100 W7        30.08S
PICKLE LAKE    NOT AVBL
DRYDEN         CLOUDY    41  39  93 NW5       30.19S
KENORA         FOG       37  37 100 NW6       30.22S VSB 1/2
$$
                *** MANITOBA***

CITY           SKY/WX    TMP DP  RH WIND       PRES   REMARKS
BRANDON        PTCLDY    28  25  86 W2        30.26S
DAUPHIN        CLEAR     32  28  86 W10       30.25S WCI  24
ISLAND LAKE    CLOUDY    36  30  80 NW10G17   30.19R
PILOT MOUND      N/A     32  30  93 SW6         N/A
THE PAS        CLEAR     32  30  93 SE8       30.17F WCI  25
THOMPSON       CLOUDY    32  30  93 NW2       30.21S
WINNIPEG       CLEAR     28  28 100 NE2       30.28R FOG
LYNN LAKE      CLOUDY    30  30 100 SE5       30.16F
CHURCHILL      CLOUDY    27  27 100 N9        30.22S WCI  17
GILLAM         FLURRIES  30  28  93 E12       30.17R WCI  21
$$
                ***SASKATCHEWAN***

CITY           SKY/WX    TMP DP  RH WIND       PRES   REMARKS
ESTEVAN        PTCLDY    36  34  93 S7        30.26S
KINDERSLEY     PTCLDY    37  27  65 S6        30.11S
LLOYDMINSTER   CLEAR     43  25  49 S10       30.06F
PRINCE ALBERT  PTCLDY    32  30  93 CALM      30.11S
REGINA         PTCLDY    36  32  87 S7        30.22S
YORKTON        MOCLDY    39  30  70 S8        30.22S
N. BATTLEFORD  CLEAR     34  28  80 CALM      30.11R
LA RONGE       CLEAR     30  27  86 CALM      30.06F
SASKATOON      PTCLDY    39  32  75 S9        30.12S
SWIFT CURRENT  CLEAR     43  30  61 S18       30.15S
$$
NOTE: THESE ARE AUTOMATED STATIONS WITH LIMITED QUALITY CONTROL
      "FAIR" INDICATES FEW OR NO CLOUDS BELOW 12,000 FEET WITH NO
      SIGNIFICANT WEATHER AND/OR OBSTRUCTIONS TO VISIBILITY.
      SKY/WX - SKY CONDITION AND SIGNIFICANT WEATHER.
      TMP - AIR TEMPERATURE.    DP   - DEWPOINT TEMPERATURE.
      RH  - RELATIVE HUMIDITY.  PRES - PRESSURE.
      HX  - HEAT INDEX.         WCI  - WIND CHILL INDEX.
$


USA.gov is the U.S. government's official web portal to all federal, state and local government web resources and services.